Regional Weather Roundup
Issued by NWS

Home | Current Version | Previous Version | Text Only | Print | Product List | Glossary Off
Versions: 1 2 3 4 5 6 7 8 9 10 11 12 13 14 15 16 17 18 19 20 21 22 23 24 25 26 27 28 29 30 31 32 33 34 35 36 37 38 39 40 41 42 43 44 45 46 47 48 49 50

000
ASUS45 KABQ 160410
RWRNM
NEW MEXICO REGIONAL WEATHER ROUNDUP
NATIONAL WEATHER SERVICE ALBUQUERQUE NM
1000 PM MDT TUE AUG 15 2017

NOTE: "FAIR" MEANS FEW OR NO CLOUDS BELOW 12,000 FEET AGL WITH NO
       SIGNIFICANT WEATHER OR OBSTRUCTIONS TO VISION.

      THIS PRODUCT IS RELEASED AS TWO VERSIONS.  ONE VERSION NEAR
      THE TOP OF THE HOUR CONTAINING PRELIMINARY DATA FROM ALBUQUERQUE
      AND OTHER STATIONS.  A FINAL VERSION WITH ADDITIONAL DATA IS
      ISSUED ABOUT 10 MINUTES AFTER THE HOUR.

NMZ501-503-504-510>518-160500-
NORTHWEST PLATEAU/NORTHCENTRAL MOUNTAINS

CITY           SKY/WX    TMP DP  RH WIND       PRES   REMARKS
FARMINGTON     FAIR      65  34  31 NE3       30.06R
LOS ALAMOS     FAIR      66  31  26 NW17G32   30.17R
SANTA FE       CLOUDY    70  33  25 NW12      30.10R
TAOS           FAIR      60  34  37 NE7       30.18R
ANGEL FIRE     FAIR      58  29  33 W9        30.24R

$$
NMZ402-403-502-505>509-160500-
WESTCENTRAL MOUNTAINS/SOUTHWEST MOUNTAINS

CITY           SKY/WX    TMP DP  RH WIND       PRES   REMARKS
GALLUP         FAIR      60  42  51 CALM      30.14R
GRANTS         FAIR      65  36  34 CALM      30.17R
SILVER CITY    FAIR      73  49  41 W12       30.09R

$$
NMZ407-409-411-412-160500-
SOUTHERN DESERTS

CITY           SKY/WX    TMP DP  RH WIND       PRES   REMARKS
DEMING         FAIR      74  54  49 S6        30.01R
LAS CRUCES     FAIR      77  49  37 W13       30.01R
HOLLOMAN AFB   MOCLDY    81  53  38 S12       29.97R
ALAMOGORDO     FAIR      81  52  36 S12G20    29.98R
T OR C         FAIR      79  45  29 W9        30.00R

$$
NMZ519>523-160500-
CENTRAL VALLEYS/CENTRAL HIGHLANDS

CITY           SKY/WX    TMP DP  RH WIND       PRES   REMARKS
ALBUQUERQUE    CLOUDY    76  34  21 N10       30.05R
DOUBLE EAGLE   MOCLDY    70  37  30 NW10      30.09R
MORIARTY ARPT  FAIR      67  38  34 NW10      30.11R
CLINES CORNERS FAIR      63  36  36 NW13G23   30.16R
BELEN          FAIR      73  38  28 N6        30.05R
SOCORRO        FAIR      80  37  21 W9        29.99R

$$
NMZ524>526-539-540-160500-
SOUTHCENTRAL MOUNTAINS

CITY           SKY/WX    TMP DP  RH WIND       PRES   REMARKS
RUIDOSO        FAIR      66  46  48 SW5       30.17R

$$
NMZ527>531-160500-
NORTHEAST HIGHLANDS/NORTHEAST PLAINS

CITY           SKY/WX    TMP DP  RH WIND       PRES   REMARKS
LAS VEGAS      FAIR      64  37  36 W7        30.12R
RATON          MOCLDY    65  49  56 N10       30.03R
CLAYTON        FAIR      64  60  87 S6        29.95R

$$
NMZ532>537-160500-
EASTCENTRAL PLAINS

CITY           SKY/WX    TMP DP  RH WIND       PRES   REMARKS
SANTA ROSA     FAIR      73  52  47 S8        29.96R
TUCUMCARI      FAIR      73  58  59 S12       29.89R
CANNON AFB     FAIR      69  69 100 SE8       29.98R
CLOVIS AIRPORT NOT AVBL

$$
NMZ028-029-538-160500-
SOUTHEAST PLAINS

CITY           SKY/WX    TMP DP  RH WIND       PRES   REMARKS
ROSWELL        FAIR      72  65  78 SW10      29.92R
ARTESIA        FAIR      73  64  73 S12       29.94R
CARLSBAD       FAIR      74  67  78 S5        29.92R
HOBBS          FAIR      77  68  73 S16       29.93F


$$




USA.gov is the U.S. government's official web portal to all federal, state and local government web resources and services.